Hourly Data Report for November 02, 2019

CARBERRY CS
MANITOBA
Current Station Operator: ECCC - MSC

49°54'20.900" N
99°21'26.800" W
383.50 m
5010547
71170
WZE

Download Data

Hourly Data (November 2019)
Hourly Data Report for November 2, 2019
TIME
LST
Temp Definition
°C
Dew Point Definition
°C
Rel Hum Definition
%
Precip. Amount Definition
mm

Wind Dir Definition
10's deg

Wind Spd Definition
km/h
Visibility Definition
km
Stn Press Definition
kPa
Hmdx Definition


Wind Chill Definition


Weather Definition


00:00 -2.4 -2.5 99 0.0 27 3   97.31   -4 LegendNANA
01:00 -1.9 -4.3 84 0.0 28 8   97.28   -5 LegendNANA
02:00 -1.4 -5.0 76 0.0 29 16   97.26   -6 LegendNANA
03:00 -1.7 -4.5 81 0.0 29 11   97.25   -6 LegendNANA
04:00 -1.9 -5.0 80 0.0 29 11   97.28   -6 LegendNANA
05:00 -1.8 -4.6 81 0.0 26 5   97.25   -4 LegendNANA
06:00 -1.5 -4.0 83 0.0 25 8   97.23   -5 LegendNANA
07:00 -1.2 -3.6 83 0.0 25 9   97.18   -4 LegendNANA
08:00 -1.2 -3.7 83 0.0 25 8   97.16   -4 LegendNANA
09:00 -0.2 -2.9 82 0.0 26 9   97.16   -3 LegendNANA
10:00 0.4 -2.6 80 0.0 26 13   97.16     LegendNANA
11:00 0.8 -2.9 76 0.0 26 17   97.12     LegendNANA
12:00 1.2 -2.4 76 0.0 27 14   97.10     LegendNANA
13:00 2.1 -2.8 70 0.0 24 12   97.02     LegendNANA
14:00 3.1 -2.9 65 0.0 25 13   96.96     LegendNANA
15:00 3.2 -2.8 64 0.0 23 9   96.90     LegendNANA
16:00 1.9 -2.9 71 0.0 24 8   96.89     LegendNANA
17:00 0.3 -3.2 77 0.0 25 6   96.89     LegendNANA
18:00 -0.4 -3.5 79 0.0 24 6   96.88   -2 LegendNANA
19:00 -0.7 -3.4 82 0.0 24 8   96.85   -4 LegendNANA
20:00 -3.3 -4.6 91 0.0 21 3   96.79   -5 LegendNANA
21:00 -4.4 -4.9 96 0.0 17 4   96.75   -6 LegendNANA
22:00 -4.5 -4.6 100 0.0 0 1   96.70   -5 LegendNANA
23:00 -3.2 -3.4 99 0.0 18 7   96.66   -6 LegendNANA

Notes on Data Quality.

Legend

  • E = Estimated
  • M = Missing
  • NA = Not Available*
  • [empty] = Indicates an unobserved value
Date modified: